Hourly Data Report for September 10, 2017

All times are specified in Local Standard Time (LST). Add 1 hour to adjust for Daylight Saving Time where and when it is observed.

EDMUNDSTON
NEW BRUNSWICK

47°25'00.000" N
68°19'28.040" W
154.20 m
8101303
71590
ERM

Download Data

Hourly Data (September 2017)
Hourly Data Report for September 10, 2017
Temp Definition
°C
Dew Point Temp Definition
°C
Rel Hum Definition
%
Wind Dir Definition
10's deg

Wind Spd Definition
km/h
Visibility Definition
km
Stn Press Definition
kPa
Hmdx Definition


Wind Chill Definition


Weather Definition


TIME
00:00 7.4 6.6 95 29 3   100.73     LegendNANA
01:00 7.2 6.5 96 29 4   100.73     LegendNANA
02:00 6.3 5.7 96 31 3   100.75     LegendNANA
03:00 4.9 4.3 96 34 6   100.74     LegendNANA
04:00 5.4 4.7 96 32 6   100.77     LegendNANA
05:00 5.5 4.9 96 33 6   100.79     LegendNANA
06:00 6.6 6.0 96 33 5   100.80     LegendNANA
07:00 7.2 6.6 96 33 6   100.85     LegendNANA
08:00 8.2 7.6 96 28 1   100.86     LegendNANA
09:00 9.8 8.9 94 26 3   100.85     LegendNANA
10:00 11.0 9.3 89 31 7   100.84     LegendNANA
11:00 12.0 9.6 85 29 7   100.81     LegendNANA
12:00 12.4 8.8 79 32 8   100.79     LegendNANA
13:00 12.4 8.4 77 32 9   100.77     LegendNANA
14:00 12.0 9.2 83 1 5   100.71     LegendNANA
15:00 13.2 9.9 80 25 2   100.62     LegendNANA
16:00 15.6 8.2 61 30 9   100.55     LegendNANA
17:00 15.8 8.4 61 30 5   100.51     LegendNANA
18:00 14.7 11.0 79 28 3   100.48     LegendNANA
19:00 9.9 8.2 89 34 5   100.46     LegendNANA
20:00 9.7 8.7 94 27 3   100.46     LegendNANA
21:00 9.6 8.7 94 30 4   100.43     LegendNANA
22:00 9.1 8.2 94 28 3   100.41     LegendNANA
23:00 9.2 8.3 94 27 3   100.40     LegendNANA

Notes on Data Quality.

Legend

  • E = Estimated
  • M = Missing
  • NA = Not Available
  • ‡ = Partner data that is not subject to review by the National Climate Archives
Date modified: